Cloud_Cover
26 16 0 0 0 0 0 0 31 12 4 5 3 0 4 0 0 0 1 6 100 33 5 36 72 32 10 60 87 93 100 82 95 100 100 100 94 100 100 100 99 68 76
0 4 1 0 0 0 0 5 15 53 35 98 9 0 0 0 0 0 0 0 5 5 5 33 52 5 46 64 28 100 100 96 52 76 92 100 98 100 100 100 99 16 5
0 0 2 0 0 0 0 0 4 4 4 100 82 1 3 2 0 0 0 0 5 5 5 5 7 34 37 51 53 100 86 100 66 26 74 100 96 100 98 100 99 32 13
0 0 0 0 0 0 1 19 0 0 14 7 62 5 1 4 0 0 1 0 1 5 5 5 15 24 23 57 6 44 100 43 50 46 22 100 74 100 100 98 100 100 53
0 0 0 0 0 0 0 0 1 0 5 5 4 5 3 4 2 0 4 5 0 4 0 5 5 31 33 32 25 73 100 100 75 84 100 76 93 100 88 100 90 100 100
0 0 0 0 0 0 0 0 0 0 0 4 9 5 5 5 5 4 3 4 5 3 0 5 8 61 97 97 59 68 100 97 94 100 100 100 93 100 100 100 100 100 88
5 1 0 0 0 0 0 0 0 0 0 0 0 4 5 6 5 2 3 8 11 16 26 7 15 44 96 100 100 100 91 96 70 100 72 85 100 100 100 100 100 100 84
79 0 0 0 0 0 0 0 0 0 0 0 0 0 5 2 3 5 8 14 89 6 5 70 71 17 32 46 87 49 27 30 47 19 99 65 94 100 96 99 100 100 96
0 0 0 4 0 0 0 0 0 0 0 0 0 0 0 0 0 0 5 38 100 66 58 82 61 80 60 45 52 42 5 26 20 77 18 100 100 100 100 100 100 100 100
91 1 1 3 0 0 0 0 0 0 0 0 0 0 0 1 0 4 8 3 46 100 91 100 100 100 89 100 89 57 10 8 62 30 45 78 98 94 100 100 100 100 100
59 0 0 0 0 0 0 0 0 0 0 0 0 0 0 0 3 2 0 0 1 8 99 98 100 100 100 100 100 95 100 46 59 97 30 94 98 100 100 100 100 100 84
73 3 0 0 0 0 0 0 0 0 0 0 0 0 0 0 22 2 0 0 0 8 2 92 100 100 100 99 100 100 82 70 88 100 50 97 40 100 100 100 100 100 100
52 13 28 3 0 0 0 0 0 0 0 0 0 0 0 2 0 0 0 0 0 2 11 14 46 100 100 100 100 100 99 100 67 92 10 57 7 82 92 84 100 100 100
92 98 6 4 0 0 0 0 0 0 3 0 0 0 0 0 0 0 0 0 0 3 0 11 16 16 76 100 100 89 89 100 100 61 5 13 25 39 13 93 97 100 100
100 100 6 1 0 0 0 0 0 0 5 5 0 0 0 0 0 0 0 0 0 0 0 5 4 2 6 29 100 58 23 56 65 93 73 47 21 48 27 99 100 100 100
91 77 38 64 0 0 0 0 0 0 2 4 0 0 0 0 5 5 43 0 0 0 0 0 2 14 0 0 0 2 15 5 5 16 58 100 99 100 81 94 100 100 100
100 87 80 57 4 0 0 0 0 0 0 0 0 0 0 3 15 88 100 84 59 32 12 0 0 4 1 1 0 0 6 0 0 5 21 74 100 84 89 100 100 95 100
100 54 14 66 4 0 0 0 0 0 0 0 0 0 0 3 92 100 100 100 100 100 100 100 99 89 62 24 5 5 2 0 0 3 2 12 38 66 98 100 100 100 98
47 14 97 28 0 0 0 0 0 0 0 0 0 0 0 50 100 100 100 100 100 100 100 100 100 100 100 100 100 100 5 2 0 1 0 0 18 32 9 35 98 99 99
100 100 100 89 0 1 0 0 0 0 0 0 0 0 0 100 100 100 100 100 100 100 100 100 100 100 100 100 100 100 100 99 100 4 1 0 4 4 86 94 100 100 100
57 46 94 49 0 0 0 0 0 0 0 0 0 0 0 100 100 100 100 100 100 100 100 100 100 100 100 100 100 100 100 100 100 25 28 11 7 30 7 11 61 91 100
67 0 6 38 49 0 0 9 0 0 0 0 0 0 0 32 100 100 100 100 100 100 100 100 100 100 100 100 100 100 100 100 60 52 14 19 32 19 38 31 43 93 28
22 1 30 97 34 0 0 0 0 0 0 0 0 0 24 72 100 100 100 100 96 100 100 100 100 86 97 100 100 100 100 100 100 26 63 64 100 74 58 40 41 5 3
95 2 0 0 5 0 0 1 0 0 0 9 9 22 32 51 96 100 96 100 99 100 100 100 100 78 98 99 36 65 79 100 100 100 100 87 66 75 78 77 61 14 53
100 71 22 0 2 0 0 0 0 0 3 4 29 56 62 66 46 62 88 97 96 80 100 100 100 100 98 97 89 100 100 100 100 100 100 100 100 97 87 74 57 100 27
100 100 100 12 4 0 0 0 0 0 0 1 0 22 23 18 22 33 53 100 99 100 100 100 100 100 100 100 100 100 100 100 100 100 100 100 100 100 100 98 100 100 82